Voltar ao catálogo

ARIANE 5 DEB

SYLDA

AtivoHEO
NORAD 43273·DEBRIS·🇫🇷 France

Lançado Apr 5, 2018 de Guiana Space Centre

Loading…

Próximas Passagens (próximas 24 horas)

TLE

AtualizadoSource: Space-Track

Época: Sep 13, 2026, 17:07 UTC

1 43273U 18033C   26256.71361813  .00000948  00000-0  11562-2 0  9993
2 43273   2.6940 151.1058 5470915 185.6225 164.1094  4.69529989113307

Acompanhe ARIANE 5 DEB em tempo real com AllMySat

Download on the App Store